SCP
1 0 0 0 0 0 1 1 1 1 1 0 0 0 0 0 0 0 0 0 0 0 0 0 0 0 0 0 0 0 0 0 0 0 0 0 0 0 0 0 0 0 0
0 0 0 0 0 0 0 0 1 1 1 1 0 0 0 0 0 0 0 0 0 0 0 1 0 0 0 0 0 0 0 0 0 0 0 0 0 0 0 0 0 0 0
0 0 0 0 1 1 0 0 0 1 0 0 0 0 0 0 0 0 0 0 0 1 1 1 1 0 0 0 0 0 0 0 0 0 0 0 0 0 0 0 0 0 0
0 0 0 0 0 1 1 1 1 1 0 0 0 0 0 0 0 0 0 0 1 1 1 1 1 1 0 0 0 0 0 0 0 0 0 0 0 0 0 0 0 0 0
0 0 0 0 0 0 0 0 0 1 1 1 0 0 0 0 0 0 0 0 1 1 1 1 1 1 1 0 0 0 0 0 0 0 0 0 0 0 0 0 0 0 0
0 0 0 0 0 0 0 0 0 0 1 1 0 1 0 0 0 0 0 0 0 1 1 1 2 1 1 1 0 0 0 0 0 0 0 0 0 0 0 0 0 0 0
0 0 0 0 0 0 0 0 0 0 0 0 0 0 0 0 0 0 0 0 0 0 1 0 1 1 1 1 0 0 0 0 0 0 0 0 0 0 0 0 0 0 0
-0 0 0 0 0 0 0 0 0 0 0 0 0 0 0 0 0 0 0 0 0 0 0 0 0 0 0 0 0 0 0 0 0 0 0 0 0 0 0 0 0 0 0
-0 0 0 0 0 0 0 0 0 0 0 0 0 0 0 0 0 0 0 0 0 0 0 0 0 0 0 0 0 0 0 0 0 0 0 0 0 0 0 0 0 0 0
-0 0 -0 0 0 0 0 0 0 0 0 0 0 0 0 0 0 0 0 0 0 0 0 0 0 0 0 0 0 0 0 0 0 0 0 0 0 0 0 0 0 0 0
0 0 0 0 0 0 0 0 0 0 0 0 0 0 0 0 0 0 0 0 0 0 0 0 0 0 0 0 0 0 0 0 0 0 0 0 0 0 0 0 0 0 0
0 0 0 0 0 0 0 0 0 0 0 0 0 0 0 0 0 0 0 0 0 0 0 0 0 0 0 0 0 0 0 0 0 0 0 0 0 0 0 0 0 0 0
0 0 0 0 0 0 0 0 0 0 0 0 0 0 0 0 0 0 0 0 0 0 0 0 0 0 0 0 0 0 0 0 0 0 0 0 0 0 0 0 0 0 0
0 0 0 0 0 0 0 0 0 0 0 0 0 0 0 0 0 0 0 0 0 0 0 0 0 0 0 0 0 0 0 0 0 0 0 0 0 0 0 0 0 0 0
0 0 0 0 0 0 0 0 0 0 0 0 0 0 0 0 0 0 0 0 0 0 0 0 0 0 0 0 0 0 0 0 0 0 0 0 0 0 0 0 0 0 0
0 0 0 0 0 0 0 0 0 0 0 0 0 0 0 0 0 0 0 0 0 0 0 0 0 0 0 0 0 0 0 0 0 0 0 0 0 0 0 0 0 0 0
0 0 0 0 0 0 -0 -0 0 0 0 0 0 0 0 0 0 0 0 0 0 0 0 0 0 0 0 0 0 0 0 0 0 0 0 0 0 0 0 0 0 0 0
0 0 0 0 0 0 -0 -0 0 0 0 0 0 0 0 0 0 0 0 0 0 0 0 0 0 0 0 0 0 0 0 0 0 0 0 0 0 0 0 0 0 0 0
0 0 0 0 0 -0 -0 -0 0 0 0 0 0 0 0 0 0 0 0 0 0 0 0 0 0 0 0 0 0 0 0 0 0 0 0 0 0 0 0 0 0 -0 -0
0 0 0 0 0 -0 -0 -0 -0 0 0 0 0 0 0 0 0 0 0 0 0 0 0 0 0 0 0 0 0 0 0 0 0 0 0 0 0 0 0 -0 0 0 0
0 0 0 0 0 0 0 -0 0 0 0 0 0 0 0 0 0 0 0 0 0 0 0 0 0 0 0 0 0 0 0 0 0 0 0 -0 0 0 -0 0 0 0 0
0 0 0 0 -0 -0 -0 0 0 0 0 0 0 0 0 0 0 0 0 0 0 0 0 0 0 0 0 0 0 0 0 0 0 0 -0 0 0 0 0 0 -0 -0 -0
-0 -0 -0 -0 -0 -0 0 0 0 0 0 0 0 0 0 0 0 0 0 0 0 0 0 0 0 0 0 0 0 0 0 0 0 -0 -0 0 0 0 -0 -0 -0 -0 -0
0 0 -0 -0 -0 -0 0 0 0 0 0 0 0 0 0 0 0 0 0 0 0 0 0 0 0 0 0 0 0 0 0 0 0 -0 -0 0 0 0 -0 -0 -0 -0 -0
0 0 -0 -0 0 0 0 0 0 -0 -0 0 0 0 -0 0 0 0 0 0 0 0 0 0 -0 -0 -0 -0 0 0 0 0 0 -0 -0 -0 0 -0 -0 -0 -0 0 -0
-0 0 -0 0 -0 0 0 0 0 0 0 0 0 0 0 0 0 -0 0 0 0 0 0 -0 0 -0 -0 -0 -0 -0 -0 0 0 -0 0 -0 0 -0 0 0 -0 -0 -0
Wind_Speed_500mb
38 37 34 35 35 32 34 33 34 34 35 34 35 32 28 29 38 41 37 34 28 26 31 34 38 41 41 41 34 24 25 21 18 21 28 36 44 47 48 47 36 25 20
33 38 39 39 39 42 41 39 39 41 43 42 37 37 33 30 27 30 37 38 35 30 33 36 40 45 43 44 37 28 28 26 21 25 30 33 40 41 44 43 37 28 24
25 31 35 37 38 41 45 46 45 46 46 43 41 38 38 39 35 33 37 32 35 33 33 42 46 50 50 44 41 38 34 30 27 27 29 34 37 42 44 41 32 29 21
21 22 28 34 38 40 39 41 47 48 49 49 48 45 46 48 47 32 42 43 42 43 38 46 50 54 54 49 48 46 42 35 30 30 31 37 37 37 39 38 33 29 23
28 32 33 33 34 37 40 40 40 47 48 48 51 49 44 46 51 45 46 42 51 48 44 44 51 56 57 50 47 64 55 40 30 31 36 38 37 35 37 33 26 24 24
26 27 33 35 33 35 33 32 30 34 42 42 44 48 45 50 49 44 48 48 44 47 48 47 48 57 62 50 44 60 62 44 36 39 38 36 36 35 33 28 27 26 26
28 28 25 27 31 32 31 31 33 33 37 42 47 48 59 43 44 46 43 45 46 46 47 54 52 56 61 51 57 56 53 39 52 41 41 34 29 34 31 29 23 22 26
32 30 31 32 30 28 29 30 30 32 38 36 39 33 41 36 43 38 34 38 42 48 49 48 49 56 59 61 72 49 46 58 61 39 32 30 29 28 28 19 20 21 23
40 36 39 42 37 32 31 31 32 32 33 36 39 34 19 16 23 28 27 32 31 39 47 52 47 45 54 55 56 36 49 53 56 23 19 24 27 27 22 19 20 20 21
38 42 46 42 42 37 32 32 33 32 37 36 44 47 43 44 34 29 32 30 36 36 37 46 44 44 50 70 46 51 59 56 31 26 8 15 18 21 24 19 22 23 22
36 40 41 43 45 41 32 33 37 37 36 40 44 49 50 46 42 44 43 39 39 37 36 35 36 36 49 66 25 56 53 32 19 11 6 12 16 19 20 21 22 23 21
40 40 43 42 44 42 41 36 35 41 44 43 42 47 54 48 48 38 37 41 36 35 35 33 37 41 47 54 52 52 42 25 6 8 3 13 17 20 21 19 19 22 25
48 43 49 47 48 47 44 45 46 43 46 52 49 48 50 52 54 48 44 47 42 40 35 35 35 34 41 49 44 34 24 14 10 6 9 13 18 23 20 21 20 21 23
55 55 56 55 53 52 52 52 55 54 52 54 58 54 54 53 51 50 46 46 45 40 39 38 32 32 39 44 40 24 16 22 18 13 11 17 19 19 22 23 22 20 22
64 65 62 59 56 58 62 64 66 63 63 59 60 61 59 56 50 50 44 46 50 45 43 38 33 36 38 38 32 25 23 24 17 16 16 20 18 21 24 26 24 20 22
62 61 62 65 68 69 70 75 79 78 74 68 61 63 62 57 49 48 46 44 50 54 42 45 45 40 42 39 34 33 28 23 18 18 20 20 22 24 27 29 26 22 23
57 63 69 73 77 80 80 84 90 89 83 72 63 62 64 52 48 49 47 39 50 52 47 38 38 36 47 47 46 40 29 20 20 18 22 20 23 29 31 30 29 26 24
75 75 74 79 81 82 85 91 97 91 80 69 65 58 61 51 49 41 49 43 41 49 49 37 40 45 47 51 49 42 32 24 20 25 21 23 27 33 35 34 30 30 30
72 79 81 83 86 83 83 86 85 75 66 62 61 55 53 47 48 40 52 43 43 48 47 38 42 48 52 58 55 44 36 28 20 20 20 23 29 35 36 37 35 35 35
82 77 76 77 77 78 79 78 74 64 58 56 53 51 50 47 47 38 51 53 47 42 41 35 43 55 57 64 57 53 41 29 21 19 18 22 30 36 37 39 45 46 47
66 63 65 65 65 67 71 69 63 53 52 51 50 52 48 47 45 45 40 50 53 47 47 45 53 62 71 79 70 56 40 34 24 15 14 21 29 33 42 53 50 48 48
62 61 58 58 62 65 66 61 50 51 49 50 53 50 47 43 33 30 36 42 49 54 52 38 50 66 75 79 72 55 49 45 31 16 13 22 27 31 43 49 45 51 59
56 55 53 55 67 71 64 49 44 48 47 49 51 48 43 39 40 26 30 52 45 40 22 27 45 52 65 74 72 61 50 36 29 25 18 27 27 33 39 37 43 53 60
48 53 61 70 66 65 45 41 38 42 49 51 52 46 42 36 49 28 27 45 69 48 27 28 27 38 45 69 59 46 48 40 34 27 22 37 33 32 25 25 39 49 57
52 55 57 59 52 40 37 37 40 44 48 48 39 35 43 41 52 33 31 44 50 44 34 32 33 24 38 63 54 59 53 41 38 25 16 11 25 23 27 36 38 38 46
47 48 39 34 33 37 30 30 31 40 40 40 39 38 38 39 52 32 46 58 83 60 52 43 44 57 61 55 50 40 47 37 32 24 13 9 11 2 16 40 42 38 39
Wind_Direction_500mb
256 257 260 255 258 275 282 287 288 288 285 286 287 289 294 300 276 268 262 259 261 278 272 260 248 256 257 266 282 277 282 285 302 323 336 337 344 340 341 341 340 333 319
260 263 264 262 260 257 265 271 278 283 289 287 290 292 293 290 287 275 276 267 253 267 272 265 254 255 265 263 282 279 266 276 297 318 329 331 328 331 335 339 340 348 338
291 281 276 272 269 267 267 267 272 277 286 282 278 287 285 284 291 280 275 267 260 266 273 260 252 250 258 262 265 269 272 273 287 304 320 319 326 331 330 338 339 328 327
339 320 302 292 283 276 276 274 270 271 277 279 278 279 281 273 274 277 275 268 269 267 274 264 255 251 255 257 251 262 268 270 280 301 301 315 319 322 330 334 332 331 327
331 333 331 324 311 298 284 274 272 269 274 277 278 283 285 282 276 275 274 283 275 270 270 270 262 248 253 261 246 242 249 262 287 291 295 305 314 322 326 329 331 325 321
317 317 316 320 320 310 301 280 261 267 276 281 285 279 272 285 279 275 276 284 287 271 267 265 262 261 256 256 248 226 228 253 277 283 304 312 316 322 329 324 326 329 331
336 324 320 307 310 312 311 298 283 261 264 277 279 283 275 279 283 276 280 281 280 276 267 271 259 260 258 251 234 222 237 255 281 291 307 317 316 321 320 326 331 334 323
340 344 339 320 311 302 299 296 286 275 262 263 277 280 293 282 282 276 283 283 272 269 269 272 265 251 246 242 236 242 273 269 280 284 293 320 319 320 321 334 325 331 341
325 323 331 334 320 301 295 296 295 290 272 256 262 272 281 267 284 294 288 291 291 279 272 273 268 258 256 254 235 232 253 271 267 275 300 318 317 324 324 323 338 337 332
311 315 327 329 332 316 297 291 288 291 286 269 256 264 265 269 272 289 283 283 286 281 278 274 274 275 263 230 217 255 247 258 243 267 306 311 329 323 324 342 349 345 338
291 300 312 320 327 325 312 301 291 283 281 279 267 263 263 269 269 265 275 275 274 269 272 264 263 271 252 215 250 237 236 232 239 268 346 318 323 327 330 348 347 344 337
279 287 300 308 315 321 320 319 304 290 281 278 274 268 264 263 265 264 267 273 267 266 264 250 239 243 238 216 217 224 231 229 149 81 353 329 331 340 342 329 332 333 337
271 278 288 295 303 310 313 317 323 306 287 278 272 270 267 264 263 267 264 256 258 259 253 246 239 245 235 227 213 212 207 175 131 67 33 2 343 343 331 325 324 335 335
271 279 280 285 291 299 306 310 314 317 299 283 275 267 267 265 264 259 262 256 248 243 244 245 238 239 233 225 227 216 189 127 101 71 7 7 3 340 335 336 336 329 333
267 271 274 274 280 289 298 303 306 308 310 289 274 267 263 262 267 258 252 248 249 237 237 227 218 218 215 216 214 190 158 122 94 66 41 27 0 358 356 349 340 328 323
260 261 265 273 280 287 293 298 302 303 302 295 277 267 264 259 262 252 249 249 250 246 236 231 223 214 202 200 190 164 144 129 97 66 42 26 19 16 10 360 346 326 320
269 270 273 277 281 287 291 294 296 297 296 292 277 268 265 263 256 247 243 250 248 242 237 221 218 202 197 197 173 161 145 122 87 70 53 29 17 12 11 6 358 352 336
278 280 281 283 286 288 292 293 293 290 289 282 273 268 264 263 252 247 234 244 254 237 233 210 196 191 196 196 178 162 148 124 103 74 46 27 16 17 15 16 11 1 354
279 282 283 283 284 287 290 290 287 283 277 272 270 266 264 259 247 244 229 234 243 234 223 214 187 186 190 184 168 162 147 131 109 85 45 31 20 23 19 19 13 13 9
282 280 279 280 279 280 281 283 282 278 273 268 267 264 261 255 247 247 231 230 237 222 212 203 176 181 185 176 175 164 153 142 127 91 52 38 30 27 29 29 30 23 20
280 278 278 275 275 276 278 280 277 272 267 264 260 260 255 248 247 245 227 221 224 225 205 185 174 180 181 177 177 168 158 152 139 106 65 41 41 36 39 41 37 38 32
281 279 272 272 275 278 280 279 271 270 264 263 263 259 249 244 231 213 223 225 227 222 194 188 193 186 186 185 179 170 168 163 153 135 82 52 52 45 50 47 43 40 37
277 271 270 274 277 280 281 268 262 261 260 262 266 261 246 231 198 205 224 231 229 210 191 206 195 195 187 191 174 175 167 155 149 136 92 70 63 56 53 47 42 40 36
276 272 275 278 278 276 269 266 260 256 258 259 261 254 235 228 189 191 234 240 225 186 178 199 217 195 194 181 176 163 156 152 147 130 102 84 64 57 45 35 37 40 40
280 275 276 274 276 272 274 264 251 265 262 258 246 220 222 214 190 224 223 221 205 182 187 178 180 176 166 165 159 158 163 163 148 138 116 94 64 60 47 47 45 40 45
280 278 273 268 273 278 267 268 270 261 247 229 230 227 215 198 191 211 226 185 172 175 168 156 138 137 144 145 153 155 158 160 146 137 137 91 61 330 52 53 52 49 52
Wind_Speed_850mb
38 37 34 35 35 32 34 33 34 34 35 34 35 32 28 29 38 41 37 34 28 26 31 34 38 41 41 41 34 24 25 21 18 21 28 36 44 47 48 47 36 25 20
33 38 39 39 39 42 41 39 39 41 43 42 37 37 33 30 27 30 37 38 35 30 33 36 40 45 43 44 37 28 28 26 21 25 30 33 40 41 44 43 37 28 24
25 31 35 37 38 41 45 46 45 46 46 43 41 38 38 39 35 33 37 32 35 33 33 42 46 50 50 44 41 38 34 30 27 27 29 34 37 42 44 41 32 29 21
21 22 28 34 38 40 39 41 47 48 49 49 48 45 46 48 47 32 42 43 42 43 38 46 50 54 54 49 48 46 42 35 30 30 31 37 37 37 39 38 33 29 23
28 32 33 33 34 37 40 40 40 47 48 48 51 49 44 46 51 45 46 42 51 48 44 44 51 56 57 50 47 64 55 40 30 31 36 38 37 35 37 33 26 24 24
26 27 33 35 33 35 33 32 30 34 42 42 44 48 45 50 49 44 48 48 44 47 48 47 48 57 62 50 44 60 62 44 36 39 38 36 36 35 33 28 27 26 26
28 28 25 27 31 32 31 31 33 33 37 42 47 48 59 43 44 46 43 45 46 46 47 54 52 56 61 51 57 56 53 39 52 41 41 34 29 34 31 29 23 22 26
32 30 31 32 30 28 29 30 30 32 38 36 39 33 41 36 43 38 34 38 42 48 49 48 49 56 59 61 72 49 46 58 61 39 32 30 29 28 28 19 20 21 23
40 36 39 42 37 32 31 31 32 32 33 36 39 34 19 16 23 28 27 32 31 39 47 52 47 45 54 55 56 36 49 53 56 23 19 24 27 27 22 19 20 20 21
38 42 46 42 42 37 32 32 33 32 37 36 44 47 43 44 34 29 32 30 36 36 37 46 44 44 50 70 46 51 59 56 31 26 8 15 18 21 24 19 22 23 22
36 40 41 43 45 41 32 33 37 37 36 40 44 49 50 46 42 44 43 39 39 37 36 35 36 36 49 66 25 56 53 32 19 11 6 12 16 19 20 21 22 23 21
40 40 43 42 44 42 41 36 35 41 44 43 42 47 54 48 48 38 37 41 36 35 35 33 37 41 47 54 52 52 42 25 6 8 3 13 17 20 21 19 19 22 25
48 43 49 47 48 47 44 45 46 43 46 52 49 48 50 52 54 48 44 47 42 40 35 35 35 34 41 49 44 34 24 14 10 6 9 13 18 23 20 21 20 21 23
55 55 56 55 53 52 52 52 55 54 52 54 58 54 54 53 51 50 46 46 45 40 39 38 32 32 39 44 40 24 16 22 18 13 11 17 19 19 22 23 22 20 22
64 65 62 59 56 58 62 64 66 63 63 59 60 61 59 56 50 50 44 46 50 45 43 38 33 36 38 38 32 25 23 24 17 16 16 20 18 21 24 26 24 20 22
62 61 62 65 68 69 70 75 79 78 74 68 61 63 62 57 49 48 46 44 50 54 42 45 45 40 42 39 34 33 28 23 18 18 20 20 22 24 27 29 26 22 23
57 63 69 73 77 80 80 84 90 89 83 72 63 62 64 52 48 49 47 39 50 52 47 38 38 36 47 47 46 40 29 20 20 18 22 20 23 29 31 30 29 26 24
75 75 74 79 81 82 85 91 97 91 80 69 65 58 61 51 49 41 49 43 41 49 49 37 40 45 47 51 49 42 32 24 20 25 21 23 27 33 35 34 30 30 30
72 79 81 83 86 83 83 86 85 75 66 62 61 55 53 47 48 40 52 43 43 48 47 38 42 48 52 58 55 44 36 28 20 20 20 23 29 35 36 37 35 35 35
82 77 76 77 77 78 79 78 74 64 58 56 53 51 50 47 47 38 51 53 47 42 41 35 43 55 57 64 57 53 41 29 21 19 18 22 30 36 37 39 45 46 47
66 63 65 65 65 67 71 69 63 53 52 51 50 52 48 47 45 45 40 50 53 47 47 45 53 62 71 79 70 56 40 34 24 15 14 21 29 33 42 53 50 48 48
62 61 58 58 62 65 66 61 50 51 49 50 53 50 47 43 33 30 36 42 49 54 52 38 50 66 75 79 72 55 49 45 31 16 13 22 27 31 43 49 45 51 59
56 55 53 55 67 71 64 49 44 48 47 49 51 48 43 39 40 26 30 52 45 40 22 27 45 52 65 74 72 61 50 36 29 25 18 27 27 33 39 37 43 53 60
48 53 61 70 66 65 45 41 38 42 49 51 52 46 42 36 49 28 27 45 69 48 27 28 27 38 45 69 59 46 48 40 34 27 22 37 33 32 25 25 39 49 57
52 55 57 59 52 40 37 37 40 44 48 48 39 35 43 41 52 33 31 44 50 44 34 32 33 24 38 63 54 59 53 41 38 25 16 11 25 23 27 36 38 38 46
47 48 39 34 33 37 30 30 31 40 40 40 39 38 38 39 52 32 46 58 83 60 52 43 44 57 61 55 50 40 47 37 32 24 13 9 11 2 16 40 42 38 39
Wind_Direction_850mb
256 257 260 255 258 275 282 287 288 288 285 286 287 289 294 300 276 268 262 259 261 278 272 260 248 256 257 266 282 277 282 285 302 323 336 337 344 340 341 341 340 333 319
260 263 264 262 260 257 265 271 278 283 289 287 290 292 293 290 287 275 276 267 253 267 272 265 254 255 265 263 282 279 266 276 297 318 329 331 328 331 335 339 340 348 338
291 281 276 272 269 267 267 267 272 277 286 282 278 287 285 284 291 280 275 267 260 266 273 260 252 250 258 262 265 269 272 273 287 304 320 319 326 331 330 338 339 328 327
339 320 302 292 283 276 276 274 270 271 277 279 278 279 281 273 274 277 275 268 269 267 274 264 255 251 255 257 251 262 268 270 280 301 301 315 319 322 330 334 332 331 327
331 333 331 324 311 298 284 274 272 269 274 277 278 283 285 282 276 275 274 283 275 270 270 270 262 248 253 261 246 242 249 262 287 291 295 305 314 322 326 329 331 325 321
317 317 316 320 320 310 301 280 261 267 276 281 285 279 272 285 279 275 276 284 287 271 267 265 262 261 256 256 248 226 228 253 277 283 304 312 316 322 329 324 326 329 331
336 324 320 307 310 312 311 298 283 261 264 277 279 283 275 279 283 276 280 281 280 276 267 271 259 260 258 251 234 222 237 255 281 291 307 317 316 321 320 326 331 334 323
340 344 339 320 311 302 299 296 286 275 262 263 277 280 293 282 282 276 283 283 272 269 269 272 265 251 246 242 236 242 273 269 280 284 293 320 319 320 321 334 325 331 341
325 323 331 334 320 301 295 296 295 290 272 256 262 272 281 267 284 294 288 291 291 279 272 273 268 258 256 254 235 232 253 271 267 275 300 318 317 324 324 323 338 337 332
311 315 327 329 332 316 297 291 288 291 286 269 256 264 265 269 272 289 283 283 286 281 278 274 274 275 263 230 217 255 247 258 243 267 306 311 329 323 324 342 349 345 338
291 300 312 320 327 325 312 301 291 283 281 279 267 263 263 269 269 265 275 275 274 269 272 264 263 271 252 215 250 237 236 232 239 268 346 318 323 327 330 348 347 344 337
279 287 300 308 315 321 320 319 304 290 281 278 274 268 264 263 265 264 267 273 267 266 264 250 239 243 238 216 217 224 231 229 149 81 353 329 331 340 342 329 332 333 337
271 278 288 295 303 310 313 317 323 306 287 278 272 270 267 264 263 267 264 256 258 259 253 246 239 245 235 227 213 212 207 175 131 67 33 2 343 343 331 325 324 335 335
271 279 280 285 291 299 306 310 314 317 299 283 275 267 267 265 264 259 262 256 248 243 244 245 238 239 233 225 227 216 189 127 101 71 7 7 3 340 335 336 336 329 333
267 271 274 274 280 289 298 303 306 308 310 289 274 267 263 262 267 258 252 248 249 237 237 227 218 218 215 216 214 190 158 122 94 66 41 27 0 358 356 349 340 328 323
260 261 265 273 280 287 293 298 302 303 302 295 277 267 264 259 262 252 249 249 250 246 236 231 223 214 202 200 190 164 144 129 97 66 42 26 19 16 10 360 346 326 320
269 270 273 277 281 287 291 294 296 297 296 292 277 268 265 263 256 247 243 250 248 242 237 221 218 202 197 197 173 161 145 122 87 70 53 29 17 12 11 6 358 352 336
278 280 281 283 286 288 292 293 293 290 289 282 273 268 264 263 252 247 234 244 254 237 233 210 196 191 196 196 178 162 148 124 103 74 46 27 16 17 15 16 11 1 354
279 282 283 283 284 287 290 290 287 283 277 272 270 266 264 259 247 244 229 234 243 234 223 214 187 186 190 184 168 162 147 131 109 85 45 31 20 23 19 19 13 13 9
282 280 279 280 279 280 281 283 282 278 273 268 267 264 261 255 247 247 231 230 237 222 212 203 176 181 185 176 175 164 153 142 127 91 52 38 30 27 29 29 30 23 20
280 278 278 275 275 276 278 280 277 272 267 264 260 260 255 248 247 245 227 221 224 225 205 185 174 180 181 177 177 168 158 152 139 106 65 41 41 36 39 41 37 38 32
281 279 272 272 275 278 280 279 271 270 264 263 263 259 249 244 231 213 223 225 227 222 194 188 193 186 186 185 179 170 168 163 153 135 82 52 52 45 50 47 43 40 37
277 271 270 274 277 280 281 268 262 261 260 262 266 261 246 231 198 205 224 231 229 210 191 206 195 195 187 191 174 175 167 155 149 136 92 70 63 56 53 47 42 40 36
276 272 275 278 278 276 269 266 260 256 258 259 261 254 235 228 189 191 234 240 225 186 178 199 217 195 194 181 176 163 156 152 147 130 102 84 64 57 45 35 37 40 40
280 275 276 274 276 272 274 264 251 265 262 258 246 220 222 214 190 224 223 221 205 182 187 178 180 176 166 165 159 158 163 163 148 138 116 94 64 60 47 47 45 40 45
280 278 273 268 273 278 267 268 270 261 247 229 230 227 215 198 191 211 226 185 172 175 168 156 138 137 144 145 153 155 158 160 146 137 137 91 61 330 52 53 52 49 52